Des Moines, IA

1:53 AM CST on November 25, 2017 (GMT -0600)
Des Moines International

Weather History for KDSM - November, 2010

Change the Weather History Date:

Wednesday, November 10, 2010

  Actual Average Record
Temperature  
Mean Temperature 56 °F 42 °F  
Max Temperature 69 °F 51 °F 78 °F (2012)
Min Temperature 42 °F 33 °F 11 °F (1986)
Degree Days  
Heating Degree Days 9 23  
Month to date heating degree days 148 205  
Since 1 July heating degree days 444 689  
Cooling Degree Days 0 0  
Month to date cooling degree days 0 0  
Year to date cooling degree days 1379 1066  
Growing Degree Days 6 (Base 50)    
Moisture  
Dew Point 46 °F    
Average Humidity 67    
Maximum Humidity 80    
Minimum Humidity 53    
Precipitation  
Precipitation 0.00 in 0.07 in 1.37 in (1968)
Month to date precipitation 0.00 0.82  
Year to date precipitation 48.71 33.23  
Snow  
Snow 0.00 in 0.00 in 11.80 in (1968)
Month to date snowfall 0.0 0.3  
Since 1 July snowfall T 0.7  
Since 1 September snowfall T 0.7  
Snow Depth 0.00 in    
Sea Level Pressure  
Sea Level Pressure 29.91 in    
Wind  
Wind Speed 13 mph (SSW)    
Max Wind Speed 22 mph    
Max Gust Speed 28 mph    
Visibility 10 miles    
Events      
T = Trace of Precipitation, MM = Missing Value Source: NWS Daily Summary

Daily Weather History Graph

Daily Weather History Graph

Search for Another Location

Airport or City:

Trip Planner

Search our weather history database for the weather conditions in past years. The results will help you decide how hot, cold, wet, or windy it might be!

Date:

Astronomy

Nov. 10, 2010 Rise Set
Actual Time 6:57 AM CST 4:59 PM CST
Civil Twilight 6:27 AM CST 5:28 PM CST
Nautical Twilight 5:54 AM CST 6:01 PM CST
Astronomical Twilight 5:22 AM CST 6:34 PM CST
Moon 11:22 AM CST (11/10) 9:01 PM CST (11/10)
Length of Visible Light 11h 00m
Length of Day
10h 01m
Waxing Crescent, 23% of the Moon is Illuminated
Nov 10
Waxing Crescent
Nov 13
First Quarter
Nov 21
Full
Nov 28
Last Quarter
Dec 5
New

Hourly Weather History & Observations

Time (CST) Temp. Windchill Dew Point Humidity Pressure Visibility Wind Dir Wind Speed Gust Speed Precip Events Conditions
12:54 AM 57.0 °F - 44.1 °F 62% 29.84 in 10.0 mi SSE 11.5 mph - N/A   Partly Cloudy
1:54 AM 57.2 °F - 44.6 °F 63% 29.84 in 10.0 mi SE 10.4 mph - N/A   Scattered Clouds
2:54 AM 55.9 °F - 44.1 °F 64% 29.83 in 10.0 mi SSE 11.5 mph - N/A   Scattered Clouds
3:54 AM 55.0 °F - 44.1 °F 67% 29.83 in 10.0 mi SSE 11.5 mph - N/A   Clear
4:54 AM 55.0 °F - 44.1 °F 67% 29.83 in 10.0 mi SSE 8.1 mph - N/A   Scattered Clouds
5:54 AM 55.0 °F - 44.1 °F 67% 29.83 in 10.0 mi SSE 10.4 mph - N/A   Mostly Cloudy
6:54 AM 55.0 °F - 45.0 °F 69% 29.84 in 10.0 mi SSE 8.1 mph - N/A   Mostly Cloudy
7:54 AM 57.0 °F - 46.0 °F 67% 29.85 in 10.0 mi SSE 8.1 mph - N/A   Partly Cloudy
8:54 AM 60.1 °F - 46.9 °F 62% 29.85 in 10.0 mi SSE 15.0 mph 23.0 mph N/A   Scattered Clouds
9:54 AM 63.0 °F - 48.9 °F 60% 29.84 in 10.0 mi South 17.3 mph - N/A   Partly Cloudy
10:54 AM 66.0 °F - 50.0 °F 56% 29.83 in 10.0 mi South 19.6 mph 25.3 mph N/A   Partly Cloudy
11:54 AM 69.1 °F - 51.1 °F 53% 29.81 in 10.0 mi SSE 17.3 mph - N/A   Partly Cloudy
12:54 PM 69.1 °F - 52.0 °F 54% 29.81 in 10.0 mi South 19.6 mph 26.5 mph N/A   Mostly Cloudy
1:54 PM 66.9 °F - 52.0 °F 59% 29.82 in 10.0 mi SSW 16.1 mph 21.9 mph N/A   Overcast
2:54 PM 68.0 °F - 53.1 °F 59% 29.83 in 10.0 mi South 18.4 mph 21.9 mph N/A   Mostly Cloudy
3:54 PM 66.9 °F - 52.0 °F 59% 29.85 in 10.0 mi South 15.0 mph - N/A   Scattered Clouds
4:54 PM 64.9 °F - 50.0 °F 58% 29.87 in 10.0 mi SSW 11.5 mph 19.6 mph N/A   Scattered Clouds
5:43 PM 59.0 °F - 48.2 °F 67% 29.92 in 10.0 mi West 12.7 mph 23.0 mph N/A   Scattered Clouds
5:54 PM 57.0 °F - 46.9 °F 69% 29.93 in 10.0 mi West 15.0 mph 21.9 mph N/A   Mostly Cloudy
6:54 PM 53.1 °F - 45.0 °F 74% 29.98 in 10.0 mi West 9.2 mph - N/A   Scattered Clouds
7:54 PM 50.0 °F - 43.0 °F 77% 30.02 in 10.0 mi West 13.8 mph - N/A   Overcast
8:54 PM 48.9 °F - 42.1 °F 77% 30.06 in 10.0 mi WNW 16.1 mph - N/A   Overcast
9:42 PM 46.4 °F 41.1 °F 39.2 °F 76% 30.09 in 10.0 mi WNW 11.5 mph - N/A   Scattered Clouds
9:54 PM 46.9 °F - 39.0 °F 74% 30.09 in 10.0 mi WNW 11.5 mph - N/A   Partly Cloudy
10:54 PM 44.1 °F 40.8 °F 37.9 °F 79% 30.12 in 9.0 mi WNW 5.8 mph - N/A   Clear
11:54 PM 43.0 °F 40.3 °F 37.9 °F 82% 30.14 in 10.0 mi WNW 4.6 mph - N/A   Clear